Location: Étouvelles
(49.5207°N, 3.5808°E)
Time: 23:22:22
(UTC+00:00)

Cosmos 540 Rocket - Pass Details

Date: 26 September 2023
Orbit: 737 x 752 km, 74.1° (Epoch: 03 December)

Event Time Altitude Azimuth Distance (km) Brightness Sun altitude
Rises 22:06:06 0° 333° (NNW) 3,184 7.6 -38.1°
Reaches altitude 10° 22:08:29 10° 330° (NNW) 2,257 6.6 -38.3°
Enters shadow 22:10:09 21° 325° (NW) 1,638 5.7 -38.4°
